Regional Weather Roundup
Issued by NWS

Home | Current Version | Previous Version | Graphics & Text | Print | Product List | Glossary On
Versions: 1 2 3 4 5 6 7 8 9 10 11 12 13 14 15 16 17 18 19 20 21 22 23 24 25 26 27 28 29 30 31 32 33 34 35 36 37 38 39 40 41 42 43 44 45 46 47 48 49 50
791
ASUS45 KCYS 202210
RWRWY

WYOMING REGIONAL WEATHER ROUNDUP
NATIONAL WEATHER SERVICE CHEYENNE WY
300 PM MST FRI JAN 20 2017

NOTE:  "FAIR" INDICATES FEW OR NO CLOUDS BELOW 12,000 FEET
WITH NO SIGNIFICANT WEATHER AND/OR OBSTRUCTIONS TO VISIBILITY.

WYZ001-202300-
YELLOWSTONE NATIONAL PARK

CITY           SKY/WX    TMP DP  RH WIND       PRES   REMARKS
LK YELLOWSTONE   N/A     21  17  84 CALM      29.41S
W YELLOWSTONE  NOT AVBL

$$
WYZ002>013-054>058-071-098>099-202300-
NORTHERN WYOMING

CITY           SKY/WX    TMP DP  RH WIND       PRES   REMARKS
JACKSON        MOSUNNY   28  19  69 S12       29.43S WCI  18
CODY           FAIR      28  22  78 NE7       29.38S WCI  21
GREYBULL       FAIR      36  29  75 E5        29.40F WCI  32
WORLAND        FAIR      36  31  82 E10       29.39F WCI  28
SHERIDAN       FAIR      38  32  79 SW7       29.39S WCI  33
BUFFALO        PTSUNNY   34  30  85 S7        29.40S WCI  28
GILLETTE       CLOUDY    34  33  96 NW10      29.38S FOG     WCI  26
HULETT         CLOUDY    36  32  87 W7        29.37S WCI  30
NEWCASTLE      CLOUDY    32  32 100 NW15      29.37R WCI  22

$$
WYZ014>020-022>026-101>103-202300-
CENTRAL WYOMING

CITY           SKY/WX    TMP DP  RH WIND       PRES   REMARKS
BIG PINEY      FAIR       8   3  80 NE5       29.46S WCI   0
PINEDALE       FAIR      14   9  79 CALM      29.46S
DUBOIS         NOT AVBL
LANDER         FAIR      32  20  61 N3        29.39S
RIVERTON       FAIR      26  19  74 NE5       29.40F WCI  20
CASPER         FAIR      36  27  69 W12       29.40S WCI  28
DOUGLAS        CLOUDY    34  32  92 NW13      29.40S WCI  25

$$
WYZ021-027>030-104>119-202300-
SOUTHERN WYOMING

CITY           SKY/WX    TMP DP  RH WIND       PRES   REMARKS
EVANSTON       FAIR      26  19  74 CALM      29.42F
ROCK SPRINGS   FOG       23  20  88 NE5       29.46S VSB<1/4 WCI  17
RAWLINS        FAIR      27  17  66 SW13      29.46S WCI  16
LARAMIE        FAIR      28  19  69 NW8       29.39R WCI  20
CHEYENNE       CLOUDY    39  19  44 NW16G23   29.37R WCI  30
TORRINGTON     CLOUDY    38  32  79 NW15      29.37S WCI  29

$$




USA.gov is the U.S. government's official web portal to all federal, state and local government web resources and services.